DECAYED

STARLINK-1775, 46681 (Decayed)

Orbit data source: Space-Track

STARLINK-1775, 46681 was a payload satellite owned by SpaceX/Seattle (US) in LEO that was launched on Sun, 18 Oct 2020 UTC via an FALCON 9 launch vehicle from the Air Force Eastern Test Range (AFETR). Payload-class satellites include a variety of spacecraft equipped with specific instruments for various scientific and technological missions. These include communications satellites like Starlink; space stations such as the ISS; scientific satellites like the Hubble; Earth observation satellites from companies like Planet Labs, Umbra, and HawkEye 360; GPS; miniature CubeSats for education and research; and military/defense satellites.

Not visible in the next 10 days
Identifier
46681, 2020-073M
Orbit
Decayed
Country
Flag of USUS
Related business
Manufacturer
SpaceX/Seattle
Mission
Decayed Commercial Communications
Bus & Motor
STARLINK, Unknown motor
Mass
260 kg wet, ~248 kg dry
Launch date (UTC)
2020-10-18 (6 years ago)
Launch vehicle
FALCON 9
Launch site
Air Force Eastern Test Range (AFETR)
Object type
Payload
Rocket body
Debris
Shape & HBR
Box + 1 Pan, 10.1 m
Radar Cross Section
13.562 m², Large (>1 m²)

Expand to show TLE details & history
Last TLE update: 2 months ago

TLE from 2 months ago
0 STARLINK-1775
1 46681U 20073M   26119.95735855  .09591430  12475-4  51568-3 0  9995
2 46681  53.0206 308.2933 0011687 290.9295  69.0501 16.41538252305736
Epoch: 2026-04-29T22:58Z
TLE epoch observation values (Epoch: 2026-04-29T22:58:35.778Z)
Latitude
-0°
Longitude
105.73336°
Altitude
159.916 km
Speed
7.813 km/s
True Right ascension
20h 33m 10s
True Declination
0° 00' 00"
Sunlit
Object was in daylight at epoch
Visualization orbit readout
Latitude
Unknown
Longitude
Unknown
Altitude
Unknown
Speed
Unknown
Apparent Right ascension
Unknown
Apparent Declination
Unknown
Sunlit
N/A
Visualization observer readout
Local Sidereal Time
13:26:54
Azimuth
Unknown
Elevation
Unknown
Doppler factor
Unknown
Orbital elements
Apogee altitude
169.649 km
Perigee altitude
154.362 km
Semi-major axis
6,540.143 km
Eccentricity
0.00117
Inclination
53.0206°
RAAN
308.2933°
Arg. of periapsis
290.9295°
True anomaly
69.17524°
Mean anomaly
69.0501°
Eccentric anomaly
69.11266°
Mean motion
4.10357 °/min
Orbital period
87.73 mins
BSTAR
0.00051568
Loading maneuver chart data...
Computing Atmospheric mass density...

Documentation

Showing up to 5 results
|